Powrót do katalogu

COSMOS 1275 DEB

AktywnyPO
NORAD 12732·DEBRIS·🇷🇺 Russia

Wystrzelony Jun 4, 1981 z Plesetsk Cosmodrome

Loading…

Następne Przeloty (najbliższe 24 godziny)

TLE

ŚwieżeSource: Space-Track

Epoka: Sep 14, 2026, 14:38 UTC

1 12732U 81053BZ  26257.61040720  .00000279  00000-0  20529-3 0  9993
2 12732  82.9920 356.0700 0051734 199.5012 225.5151 13.91634485283586

Śledź COSMOS 1275 DEB w czasie rzeczywistym z AllMySat

Download on the App Store